RYR07D LEBL-EGBB

Flight info

Callsign RYR07D
Flight time 1h 53m
Altitude 32000
Route NATPI DCT EVNAM/N0460F360 DCT TUPAR/N0458F380 UN861 DIKRO UM184 HEMEL
Aircraft B38M/M-SDE1FGHILORVWXY/HB1

Departure

Time 2026-05-05 16:38
Airport Josep Tarradellas Barcelona-El Prat Airport (LEBL)

Arrival

Time 2026-05-05 18:31
Airport Birmingham Airport (EGBB)
Time Latitude Longitude Altitude Speed Heading
2026-05-05 16:01 41.29366 2.08102 20 ft 0 kts 65°
2026-05-05 16:30 41.29367 2.08103 20 ft 1 kts 67°
2026-05-05 16:30 41.29379 2.08142 21 ft 9 kts 75°
2026-05-05 16:31 41.29350 2.08218 21 ft 8 kts 136°
2026-05-05 16:31 41.29347 2.08255 21 ft 4 kts 70°
2026-05-05 16:31 41.29369 2.08338 23 ft 12 kts 86°
2026-05-05 16:31 41.29327 2.08402 22 ft 10 kts 156°
2026-05-05 16:32 41.29276 2.08433 25 ft 15 kts 155°
2026-05-05 16:32 41.29143 2.08513 22 ft 27 kts 155°
2026-05-05 16:32 41.28955 2.08626 20 ft 31 kts 156°
2026-05-05 16:32 41.28868 2.08728 19 ft 14 kts 84°
2026-05-05 16:33 41.28906 2.08859 21 ft 16 kts 66°
2026-05-05 16:33 41.28956 2.09003 20 ft 18 kts 65°
2026-05-05 16:33 41.29010 2.09161 19 ft 20 kts 66°
2026-05-05 16:33 41.29067 2.09333 20 ft 21 kts 66°
2026-05-05 16:34 41.29131 2.09517 19 ft 23 kts 66°
2026-05-05 16:34 41.29199 2.09714 20 ft 24 kts 65°
2026-05-05 16:34 41.29264 2.09906 21 ft 17 kts 72°
2026-05-05 16:34 41.29256 2.09962 20 ft 3 kts 96°
2026-05-05 16:35 41.29259 2.10050 17 ft 11 kts 88°
2026-05-05 16:35 41.29259 2.10056 17 ft 0 kts 98°
2026-05-05 16:36 41.29258 2.10060 17 ft 2 kts 98°
2026-05-05 16:36 41.29247 2.10133 19 ft 13 kts 102°
2026-05-05 16:36 41.29250 2.10266 16 ft 15 kts 93°
2026-05-05 16:36 41.29234 2.10307 17 ft 0 kts 158°
2026-05-05 16:37 41.29212 2.10295 17 ft 9 kts 217°
2026-05-05 16:37 41.29170 2.10180 20 ft 37 kts 245°
2026-05-05 16:37 41.28941 2.09515 22 ft 119 kts 246°
2026-05-05 16:37 41.28509 2.08274 266 ft 160 kts 244°
2026-05-05 16:38 41.28019 2.06826 1037 ft 175 kts 240°
2026-05-05 16:38 41.27367 2.05447 1980 ft 183 kts 233°
2026-05-05 16:38 41.26493 2.04049 2590 ft 203 kts 222°
2026-05-05 16:38 41.25269 2.03082 3573 ft 204 kts 196°
2026-05-05 16:39 41.23813 2.02967 4476 ft 216 kts 171°
2026-05-05 16:39 41.22339 2.03454 5398 ft 223 kts 171°
2026-05-05 16:39 41.20783 2.03707 5808 ft 226 kts 179°
2026-05-05 16:39 41.19227 2.03445 5880 ft 227 kts 206°
2026-05-05 16:40 41.18358 2.02687 5918 ft 227 kts 225°
2026-05-05 16:40 41.17323 2.01094 5981 ft 231 kts 231°
2026-05-05 16:40 41.16304 1.99433 6466 ft 229 kts 231°
2026-05-05 16:40 41.15312 1.97790 7509 ft 230 kts 232°
2026-05-05 16:41 41.14312 1.96116 8484 ft 232 kts 232°
2026-05-05 16:41 41.13417 1.94314 9309 ft 241 kts 248°
2026-05-05 16:41 41.12897 1.92159 10112 ft 247 kts 251°
2026-05-05 16:41 41.12371 1.89978 10977 ft 250 kts 252°
2026-05-05 16:42 41.11841 1.87747 11748 ft 256 kts 251°
2026-05-05 16:42 41.11493 1.85389 12372 ft 272 kts 269°
2026-05-05 16:42 41.11929 1.82843 12787 ft 297 kts 288°
2026-05-05 16:42 41.12702 1.80202 13156 ft 318 kts 288°
2026-05-05 16:43 41.13615 1.77429 13485 ft 340 kts 299°
2026-05-05 16:43 41.15251 1.75069 14028 ft 359 kts 320°
2026-05-05 16:43 41.17434 1.73345 14587 ft 369 kts 327°
2026-05-05 16:43 41.19667 1.71653 15328 ft 371 kts 326°
2026-05-05 16:44 41.21983 1.70085 16000 ft 378 kts 331°
2026-05-05 16:44 41.24398 1.68661 16696 ft 381 kts 330°
2026-05-05 16:44 41.26822 1.67206 17371 ft 384 kts 330°
2026-05-05 16:44 41.29266 1.65726 18049 ft 388 kts 329°
2026-05-05 16:45 41.31724 1.64229 18631 ft 391 kts 329°
2026-05-05 16:45 41.34177 1.62734 19205 ft 395 kts 330°
2026-05-05 16:45 41.36685 1.61204 19711 ft 400 kts 330°
2026-05-05 16:45 41.39223 1.59653 20246 ft 403 kts 329°
2026-05-05 16:46 41.41786 1.58085 20806 ft 406 kts 329°
2026-05-05 16:46 41.44365 1.56507 21326 ft 410 kts 329°
2026-05-05 16:46 41.46963 1.54916 21872 ft 413 kts 328°
2026-05-05 16:46 41.49586 1.53308 22391 ft 416 kts 328°
2026-05-05 16:47 41.52229 1.51687 22923 ft 420 kts 328°
2026-05-05 16:47 41.54957 1.50231 23424 ft 432 kts 339°
2026-05-05 16:47 41.57937 1.49509 23905 ft 438 kts 343°
2026-05-05 16:47 41.60969 1.48807 24238 ft 444 kts 343°
2026-05-05 16:48 41.64017 1.48116 24677 ft 446 kts 343°
2026-05-05 16:48 41.67093 1.47427 25044 ft 451 kts 343°
2026-05-05 16:48 41.70202 1.46734 25455 ft 454 kts 343°
2026-05-05 16:48 41.73323 1.46039 25861 ft 457 kts 343°
2026-05-05 16:49 41.76467 1.45337 26236 ft 460 kts 342°
2026-05-05 16:49 41.79627 1.44631 26711 ft 461 kts 343°
2026-05-05 16:49 41.82795 1.43922 27093 ft 464 kts 343°
2026-05-05 16:49 41.85998 1.43205 27478 ft 467 kts 342°
2026-05-05 16:50 41.89213 1.42484 27865 ft 470 kts 342°
2026-05-05 16:50 41.92451 1.41757 28228 ft 473 kts 342°
2026-05-05 16:50 41.95707 1.41026 28575 ft 476 kts 342°
2026-05-05 16:50 41.98986 1.40289 28965 ft 479 kts 343°
2026-05-05 16:51 42.02266 1.39551 29397 ft 479 kts 342°
2026-05-05 16:51 42.05557 1.38809 29728 ft 482 kts 342°
2026-05-05 16:51 42.08878 1.38060 30035 ft 485 kts 342°
2026-05-05 16:51 42.12213 1.37308 30329 ft 487 kts 342°
2026-05-05 16:52 42.15565 1.36550 30591 ft 490 kts 342°
2026-05-05 16:52 42.18933 1.35787 30844 ft 492 kts 342°
2026-05-05 16:52 42.22316 1.35022 31223 ft 493 kts 343°
2026-05-05 16:52 42.25703 1.34253 31537 ft 494 kts 343°
2026-05-05 16:53 42.29043 1.33495 31938 ft 495 kts 343°
2026-05-05 16:53 42.32482 1.32710 31929 ft 494 kts 343°
2026-05-05 16:53 42.39190 1.31187 31963 ft 493 kts 343°
2026-05-05 16:54 42.45951 1.29645 31956 ft 492 kts 344°
2026-05-05 16:54 42.52694 1.28103 31952 ft 492 kts 344°
2026-05-05 16:55 42.59427 1.26560 31937 ft 491 kts 344°
2026-05-05 16:55 42.66171 1.25012 31951 ft 491 kts 344°
2026-05-05 16:56 42.72922 1.23571 31941 ft 495 kts 349°
2026-05-05 16:56 42.79766 1.22712 31974 ft 494 kts 348°
2026-05-05 16:57 42.86606 1.21772 31972 ft 495 kts 348°
2026-05-05 16:57 42.93452 1.20817 31984 ft 495 kts 348°
2026-05-05 16:58 43.00295 1.19860 31974 ft 494 kts 348°
2026-05-05 16:58 43.07123 1.18904 31958 ft 492 kts 349°
2026-05-05 16:59 43.13929 1.17947 31988 ft 492 kts 349°
2026-05-05 16:59 43.20741 1.16989 31975 ft 492 kts 349°
2026-05-05 17:00 43.27541 1.16030 31969 ft 490 kts 349°
2026-05-05 17:00 43.34332 1.15069 31965 ft 490 kts 349°
2026-05-05 17:01 43.41067 1.14116 31986 ft 488 kts 349°
2026-05-05 17:01 43.47785 1.13161 31974 ft 484 kts 350°
2026-05-05 17:02 43.54470 1.12210 31959 ft 484 kts 350°
2026-05-05 17:02 43.61077 1.10806 31932 ft 474 kts 335°
2026-05-05 17:03 43.67138 1.07313 31936 ft 473 kts 333°
2026-05-05 17:03 43.73184 1.03739 31950 ft 473 kts 332°
2026-05-05 17:04 43.79210 1.00130 31949 ft 472 kts 332°
2026-05-05 17:04 43.85241 0.96508 31943 ft 473 kts 332°
2026-05-05 17:05 43.91286 0.92868 31946 ft 473 kts 332°
2026-05-05 17:05 43.97321 0.89226 31946 ft 473 kts 332°
2026-05-05 17:06 44.03363 0.85573 31936 ft 473 kts 333°
2026-05-05 17:06 44.09392 0.81919 31939 ft 473 kts 333°
2026-05-05 17:07 44.15426 0.78254 31964 ft 473 kts 333°
2026-05-05 17:07 44.21462 0.74579 31971 ft 473 kts 333°
2026-05-05 17:08 44.27481 0.70907 31959 ft 472 kts 333°
2026-05-05 17:08 44.33500 0.67227 31928 ft 472 kts 333°
2026-05-05 17:09 44.39519 0.63537 31921 ft 472 kts 333°
2026-05-05 17:09 44.45535 0.59842 31936 ft 472 kts 334°
2026-05-05 17:10 44.51546 0.56141 31936 ft 472 kts 334°
2026-05-05 17:10 44.57565 0.52427 31934 ft 472 kts 333°
2026-05-05 17:11 44.63577 0.48709 31937 ft 472 kts 334°
2026-05-05 17:11 44.69580 0.44988 31938 ft 472 kts 334°
2026-05-05 17:12 44.75550 0.41278 31942 ft 472 kts 334°
2026-05-05 17:12 44.81557 0.37538 31954 ft 472 kts 334°
2026-05-05 17:13 44.87561 0.33791 31942 ft 472 kts 334°
2026-05-05 17:13 44.93555 0.30041 31928 ft 472 kts 334°
2026-05-05 17:14 44.99550 0.26282 31942 ft 472 kts 334°
2026-05-05 17:14 45.05540 0.22518 31925 ft 470 kts 335°
2026-05-05 17:15 45.11518 0.18753 31923 ft 470 kts 335°
2026-05-05 17:15 45.17489 0.14983 31917 ft 470 kts 335°
2026-05-05 17:16 45.23462 0.11203 31921 ft 471 kts 335°
2026-05-05 17:16 45.29453 0.07404 31924 ft 472 kts 335°
2026-05-05 17:17 45.35441 0.03597 31917 ft 471 kts 335°
2026-05-05 17:17 45.41423 -0.00214 31920 ft 473 kts 335°
2026-05-05 17:18 45.47418 -0.04045 31911 ft 471 kts 335°
2026-05-05 17:18 45.53409 -0.07880 31915 ft 473 kts 335°
2026-05-05 17:19 45.59394 -0.11719 31903 ft 471 kts 335°
2026-05-05 17:19 45.65353 -0.15552 31915 ft 475 kts 335°
2026-05-05 17:20 45.71350 -0.19420 31903 ft 472 kts 335°
2026-05-05 17:20 45.77355 -0.23300 31907 ft 475 kts 335°
2026-05-05 17:21 45.83336 -0.27174 31895 ft 470 kts 335°
2026-05-05 17:22 45.92318 -0.33009 31892 ft 472 kts 335°
2026-05-05 17:22 45.98275 -0.36892 31888 ft 471 kts 337°
2026-05-05 17:23 46.04247 -0.40792 31879 ft 470 kts 337°
2026-05-05 17:23 46.10180 -0.44676 31882 ft 469 kts 337°
2026-05-05 17:24 46.16142 -0.48589 31882 ft 470 kts 336°
2026-05-05 17:24 46.22068 -0.52485 31894 ft 467 kts 337°
2026-05-05 17:25 46.27968 -0.56374 31888 ft 466 kts 337°
2026-05-05 17:25 46.33867 -0.60271 31889 ft 466 kts 337°
2026-05-05 17:26 46.39766 -0.64178 31873 ft 465 kts 338°
2026-05-05 17:26 46.45899 -0.66662 31889 ft 457 kts 355°
2026-05-05 17:27 46.52187 -0.67809 31870 ft 459 kts 355°
2026-05-05 17:27 46.58529 -0.68894 31858 ft 459 kts 356°
2026-05-05 17:28 46.64865 -0.69962 31865 ft 458 kts 356°
2026-05-05 17:28 46.71206 -0.71031 31876 ft 458 kts 356°
2026-05-05 17:29 46.77530 -0.72101 31875 ft 458 kts 356°
2026-05-05 17:29 46.83865 -0.73175 31867 ft 458 kts 356°
2026-05-05 17:30 46.90201 -0.74252 31868 ft 458 kts 356°
2026-05-05 17:30 46.96541 -0.75332 31875 ft 458 kts 356°
2026-05-05 17:31 47.01799 -0.76229 31867 ft 459 kts 356°
2026-05-05 17:31 47.08185 -0.77322 31869 ft 459 kts 356°
2026-05-05 17:32 47.14485 -0.78402 31865 ft 459 kts 356°
2026-05-05 17:32 47.20830 -0.79493 31866 ft 459 kts 356°
2026-05-05 17:33 47.27162 -0.80584 31875 ft 459 kts 356°
2026-05-05 17:33 47.33497 -0.81678 31875 ft 459 kts 356°
2026-05-05 17:34 47.39837 -0.82776 31866 ft 459 kts 356°
2026-05-05 17:34 47.46170 -0.83875 31879 ft 458 kts 356°
2026-05-05 17:35 47.52485 -0.84972 31881 ft 457 kts 356°
2026-05-05 17:35 47.58817 -0.85730 31886 ft 457 kts 358°
2026-05-05 17:36 47.65160 -0.86499 31886 ft 457 kts 358°
2026-05-05 17:36 47.71499 -0.87275 31886 ft 457 kts 358°
2026-05-05 17:37 47.77829 -0.88053 31890 ft 457 kts 358°
2026-05-05 17:37 47.84179 -0.88835 31886 ft 459 kts 358°
2026-05-05 17:38 47.90543 -0.89621 31886 ft 459 kts 358°
2026-05-05 17:38 47.96910 -0.90409 31886 ft 459 kts 358°
2026-05-05 17:39 48.03263 -0.91197 31889 ft 459 kts 358°
2026-05-05 17:39 48.09627 -0.91988 31883 ft 459 kts 358°
2026-05-05 17:40 48.15989 -0.92782 31888 ft 459 kts 358°
2026-05-05 17:40 48.22348 -0.93577 31880 ft 459 kts 358°
2026-05-05 17:41 48.28702 -0.94373 31905 ft 458 kts 358°
2026-05-05 17:41 48.35018 -0.95166 31905 ft 458 kts 358°
2026-05-05 17:42 48.41371 -0.95966 31901 ft 458 kts 358°
2026-05-05 17:42 48.47725 -0.96765 31906 ft 459 kts 358°
2026-05-05 17:43 48.54082 -0.97570 31904 ft 459 kts 358°
2026-05-05 17:43 48.60445 -0.98378 31905 ft 459 kts 358°
2026-05-05 17:44 48.66800 -0.99186 31894 ft 459 kts 358°
2026-05-05 17:44 48.73175 -0.99999 31901 ft 460 kts 358°
2026-05-05 17:45 48.79546 -1.00814 31911 ft 460 kts 358°
2026-05-05 17:45 48.85916 -1.01631 31909 ft 460 kts 358°
2026-05-05 17:46 48.92295 -1.02450 31920 ft 460 kts 358°
2026-05-05 17:46 48.98670 -1.03272 31910 ft 460 kts 358°
2026-05-05 17:47 49.05038 -1.04094 31914 ft 460 kts 358°
2026-05-05 17:47 49.11417 -1.04920 31915 ft 461 kts 358°
2026-05-05 17:48 49.17776 -1.05746 31917 ft 461 kts 358°
2026-05-05 17:48 49.24169 -1.06578 31917 ft 461 kts 358°
2026-05-05 17:49 49.30558 -1.07412 31919 ft 461 kts 357°
2026-05-05 17:49 49.36970 -1.08251 31924 ft 463 kts 357°
2026-05-05 17:50 49.43392 -1.09094 31926 ft 463 kts 357°
2026-05-05 17:50 49.49799 -1.09936 31927 ft 463 kts 357°
2026-05-05 17:51 49.56222 -1.10783 31928 ft 464 kts 356°
2026-05-05 17:51 49.62619 -1.10466 31929 ft 461 kts
2026-05-05 17:52 49.69028 -1.09635 31932 ft 462 kts
2026-05-05 17:52 49.75418 -1.08764 31921 ft 461 kts
2026-05-05 17:53 49.81813 -1.07887 31930 ft 462 kts
2026-05-05 17:53 49.88208 -1.07009 31928 ft 461 kts
2026-05-05 17:54 49.94606 -1.06129 31928 ft 461 kts
2026-05-05 17:54 50.00998 -1.05245 31926 ft 462 kts
2026-05-05 17:55 50.07409 -1.04356 31925 ft 462 kts
2026-05-05 17:55 50.13815 -1.03464 31928 ft 462 kts
2026-05-05 17:56 50.20221 -1.02571 31927 ft 462 kts
2026-05-05 17:56 50.26585 -1.01681 31926 ft 463 kts
2026-05-05 17:57 50.32993 -1.00782 31925 ft 463 kts
2026-05-05 17:57 50.39413 -0.99880 31925 ft 463 kts
2026-05-05 17:58 50.45830 -0.98977 31925 ft 463 kts
2026-05-05 17:58 50.52247 -0.98070 31925 ft 464 kts
2026-05-05 17:59 50.58671 -0.97161 31926 ft 464 kts
2026-05-05 17:59 50.65094 -0.96248 31927 ft 464 kts
2026-05-05 18:00 50.71539 -0.95331 31927 ft 465 kts
2026-05-05 18:00 50.77977 -0.94411 31929 ft 465 kts
2026-05-05 18:01 50.84319 -0.92619 31940 ft 464 kts 19°
2026-05-05 18:01 50.90488 -0.89447 31926 ft 466 kts 18°
2026-05-05 18:02 50.96663 -0.86261 31928 ft 467 kts 18°
2026-05-05 18:02 51.02830 -0.83060 31933 ft 467 kts 18°
2026-05-05 18:03 51.09002 -0.79848 31933 ft 467 kts 18°
2026-05-05 18:03 51.15174 -0.76628 31934 ft 467 kts 18°
2026-05-05 18:04 51.21346 -0.73397 31940 ft 467 kts 18°
2026-05-05 18:04 51.27507 -0.70164 31939 ft 467 kts 18°
2026-05-05 18:05 51.33640 -0.66936 31942 ft 467 kts 18°
2026-05-05 18:05 51.39875 -0.63645 31939 ft 470 kts 18°
2026-05-05 18:06 51.46040 -0.60381 31937 ft 470 kts 18°
2026-05-05 18:06 51.52232 -0.57095 31926 ft 464 kts 18°
2026-05-05 18:06 51.55262 -0.55483 31324 ft 460 kts 18°
2026-05-05 18:07 51.58341 -0.53842 30088 ft 473 kts 18°
2026-05-05 18:07 51.61483 -0.52167 29105 ft 476 kts 18°
2026-05-05 18:07 51.64601 -0.50501 28642 ft 467 kts 18°
2026-05-05 18:07 51.67661 -0.48865 28117 ft 460 kts 18°
2026-05-05 18:08 51.70684 -0.47246 27536 ft 457 kts 18°
2026-05-05 18:08 51.73689 -0.45634 26938 ft 454 kts 18°
2026-05-05 18:08 51.76700 -0.44210 26234 ft 450 kts
2026-05-05 18:08 51.79793 -0.43972 25579 ft 444 kts 353°
2026-05-05 18:09 51.82768 -0.45051 25074 ft 435 kts 337°
2026-05-05 18:09 51.85474 -0.47137 24526 ft 429 kts 330°
2026-05-05 18:09 51.88086 -0.49453 23936 ft 426 kts 328°
2026-05-05 18:09 51.90648 -0.51838 23322 ft 423 kts 328°
2026-05-05 18:10 51.93178 -0.54246 22683 ft 420 kts 328°
2026-05-05 18:10 51.95671 -0.56653 22020 ft 418 kts 327°
2026-05-05 18:10 51.98153 -0.59068 21473 ft 413 kts 327°
2026-05-05 18:10 52.00599 -0.61459 20954 ft 408 kts 327°
2026-05-05 18:11 52.03022 -0.63832 20416 ft 405 kts 327°
2026-05-05 18:11 52.05420 -0.66184 19900 ft 402 kts 327°
2026-05-05 18:11 52.07807 -0.68528 19374 ft 399 kts 327°
2026-05-05 18:11 52.09376 -0.70072 19032 ft 398 kts 328°
2026-05-05 18:12 52.12522 -0.73167 18351 ft 395 kts 328°
2026-05-05 18:12 52.14869 -0.75480 17791 ft 393 kts 327°
2026-05-05 18:12 52.17193 -0.77774 17260 ft 390 kts 327°
2026-05-05 18:12 52.19501 -0.80056 16782 ft 386 kts 327°
2026-05-05 18:13 52.21785 -0.82327 16285 ft 382 kts 325°
2026-05-05 18:13 52.23745 -0.85206 15724 ft 379 kts 306°
2026-05-05 18:13 52.24991 -0.88915 15310 ft 372 kts 289°
2026-05-05 18:13 52.25681 -0.92960 14892 ft 367 kts 284°
2026-05-05 18:14 52.26291 -0.96984 14442 ft 364 kts 283°
2026-05-05 18:14 52.26873 -1.00995 14003 ft 361 kts 283°
2026-05-05 18:14 52.27434 -1.04967 13545 ft 358 kts 282°
2026-05-05 18:14 52.27981 -1.08915 13097 ft 354 kts 282°
2026-05-05 18:15 52.28510 -1.12783 12908 ft 344 kts 282°
2026-05-05 18:15 52.29020 -1.16527 12755 ft 332 kts 282°
2026-05-05 18:15 52.29512 -1.20157 12590 ft 322 kts 282°
2026-05-05 18:15 52.29982 -1.23632 12441 ft 313 kts 282°
2026-05-05 18:16 52.30448 -1.27088 12287 ft 303 kts 282°
2026-05-05 18:16 52.30888 -1.30357 12148 ft 294 kts 282°
2026-05-05 18:16 52.31319 -1.33564 12009 ft 285 kts 282°
2026-05-05 18:16 52.31739 -1.36697 11755 ft 281 kts 282°
2026-05-05 18:17 52.32153 -1.39800 11434 ft 278 kts 283°
2026-05-05 18:17 52.32563 -1.42872 11148 ft 276 kts 283°
2026-05-05 18:17 52.32968 -1.45919 10864 ft 273 kts 283°
2026-05-05 18:17 52.33369 -1.48936 10577 ft 270 kts 283°
2026-05-05 18:18 52.33765 -1.51924 10301 ft 268 kts 283°
2026-05-05 18:18 52.34158 -1.54894 10018 ft 267 kts 283°
2026-05-05 18:18 52.34554 -1.57895 9728 ft 272 kts 283°
2026-05-05 18:18 52.34955 -1.60939 9420 ft 275 kts 283°
2026-05-05 18:19 52.35359 -1.64013 9112 ft 277 kts 283°
2026-05-05 18:19 52.35639 -1.67117 8948 ft 275 kts 271°
2026-05-05 18:19 52.35530 -1.70243 8860 ft 278 kts 268°
2026-05-05 18:19 52.35411 -1.73397 8774 ft 278 kts 268°
2026-05-05 18:20 52.35333 -1.75490 8727 ft 279 kts 268°
2026-05-05 18:20 52.35216 -1.78645 8636 ft 277 kts 268°
2026-05-05 18:20 52.35097 -1.81795 8550 ft 278 kts 267°
2026-05-05 18:20 52.34979 -1.84903 8454 ft 269 kts 268°
2026-05-05 18:21 52.34865 -1.87902 8355 ft 259 kts 268°
2026-05-05 18:21 52.34755 -1.90781 8271 ft 249 kts 267°
2026-05-05 18:21 52.34648 -1.93536 8195 ft 238 kts 268°
2026-05-05 18:21 52.34545 -1.96188 8115 ft 233 kts 267°
2026-05-05 18:22 52.34442 -1.98836 8057 ft 234 kts 268°
2026-05-05 18:22 52.34337 -2.01502 7983 ft 235 kts 268°
2026-05-05 18:22 52.34232 -2.04169 7930 ft 235 kts 268°
2026-05-05 18:22 52.34196 -2.06838 7841 ft 234 kts 281°
2026-05-05 18:23 52.34834 -2.09204 7693 ft 228 kts 313°
2026-05-05 18:23 52.36120 -2.10639 7637 ft 224 kts 343°
2026-05-05 18:23 52.37665 -2.10856 7591 ft 226 kts
2026-05-05 18:23 52.39175 -2.10166 7557 ft 227 kts 28°
2026-05-05 18:24 52.40344 -2.08489 7480 ft 225 kts 56°
2026-05-05 18:24 52.40891 -2.06101 7406 ft 227 kts 83°
2026-05-05 18:24 52.40767 -2.03516 7375 ft 230 kts 99°
2026-05-05 18:24 52.40452 -2.00943 7295 ft 229 kts 100°
2026-05-05 18:25 52.40120 -1.98390 7008 ft 229 kts 100°
2026-05-05 18:25 52.39895 -1.96715 6855 ft 227 kts 101°
2026-05-05 18:25 52.39431 -1.93344 6497 ft 225 kts 102°
2026-05-05 18:25 52.39076 -1.90854 6224 ft 223 kts 103°
2026-05-05 18:26 52.38696 -1.88408 5966 ft 222 kts 103°
2026-05-05 18:26 52.38299 -1.85979 5717 ft 220 kts 103°
2026-05-05 18:26 52.37900 -1.83559 5384 ft 221 kts 103°
2026-05-05 18:26 52.37497 -1.81155 5128 ft 219 kts 103°
2026-05-05 18:27 52.37096 -1.78749 4849 ft 217 kts 103°
2026-05-05 18:27 52.36692 -1.76417 4667 ft 211 kts 103°
2026-05-05 18:27 52.36281 -1.74086 4210 ft 215 kts 103°
2026-05-05 18:27 52.35868 -1.71717 3692 ft 218 kts 99°
2026-05-05 18:28 52.36531 -1.67137 2600 ft 216 kts 43°
2026-05-05 18:28 52.37816 -1.65890 2034 ft 218 kts 12°
2026-05-05 18:28 52.39284 -1.65937 1736 ft 205 kts 342°
2026-05-05 18:29 52.40382 -1.67163 1583 ft 184 kts 310°
2026-05-05 18:29 52.41068 -1.68767 1431 ft 159 kts 309°
2026-05-05 18:29 52.41696 -1.70150 1132 ft 147 kts 307°
2026-05-05 18:29 52.42358 -1.71397 863 ft 145 kts 322°
2026-05-05 18:30 52.43161 -1.72343 662 ft 138 kts 327°
2026-05-05 18:30 52.43938 -1.73197 487 ft 133 kts 327°
2026-05-05 18:30 52.44702 -1.74047 356 ft 131 kts 328°
2026-05-05 18:30 52.45349 -1.74764 327 ft 80 kts 326°
2026-05-05 18:31 52.45645 -1.75087 325 ft 37 kts 325°
2026-05-05 18:31 52.45893 -1.75367 320 ft 47 kts 326°
2026-05-05 18:31 52.46105 -1.75593 312 ft 9 kts 328°
2026-05-05 18:31 52.46162 -1.75583 311 ft 9 kts 38°
2026-05-05 18:32 52.46184 -1.75539 311 ft 0 kts 55°
2026-05-05 18:32 52.46203 -1.75495 310 ft 12 kts 55°
2026-05-05 18:32 52.46205 -1.75391 305 ft 7 kts 134°
2026-05-05 18:32 52.46123 -1.75294 307 ft 19 kts 145°
2026-05-05 18:33 52.46010 -1.75167 307 ft 21 kts 146°
2026-05-05 18:33 52.45966 -1.75119 308 ft 3 kts 146°
2026-05-05 18:33 52.45945 -1.75096 308 ft 5 kts 146°
2026-05-05 18:33 52.45907 -1.75053 308 ft 11 kts 146°
2026-05-05 18:34 52.45805 -1.74941 314 ft 21 kts 146°
2026-05-05 18:34 52.45683 -1.74804 315 ft 21 kts 146°
2026-05-05 18:34 52.45569 -1.74678 321 ft 19 kts 146°
2026-05-05 18:34 52.45499 -1.74564 326 ft 13 kts 106°
2026-05-05 18:35 52.45518 -1.74445 324 ft 8 kts 96°
2026-05-05 18:35 52.45491 -1.74360 324 ft 11 kts 119°
2026-05-05 18:35 52.45485 -1.74231 322 ft 7 kts 81°
2026-05-05 18:35 52.45457 -1.74176 325 ft 7 kts 143°
2026-05-05 18:36 52.45426 -1.74141 326 ft 0 kts 146°
2026-05-05 18:36 52.45419 -1.74134 326 ft 0 kts 146°